,,PA_Meas_PMT16A,,PR_Meas_QMR101_102,,RH_Meas_QMH101,,SR_Meas_QMS101,,TA_Meas_QMH101,,GenWind,,GenWind,
time,status,PA,status,PR,status,RH,status,SR,status,TA,status,DirAvg,status,SpdAvg,
2010-11-04, 00:00:04,VALID,917.6,VALID,0,VALID,95.3384,VALID,0,VALID,19.2738,VALID,352,VALID,0.302344,
2010-11-04, 00:01:04,VALID,917.588,VALID,0,VALID,95.4452,VALID,0,VALID,19.2543,VALID,352,VALID,0.268359,
2010-11-04, 00:02:04,VALID,917.577,VALID,0,VALID,95.5748,VALID,0,VALID,19.2334,VALID,352,VALID,0.269922,
2010-11-04, 00:03:04,VALID,917.552,VALID,0,VALID,95.6205,VALID,0,VALID,19.2543,VALID,352,VALID,0,
2010-11-04, 00:04:04,VALID,917.537,VALID,0,VALID,95.6586,VALID,0,VALID,19.2348,VALID,352,VALID,0.841797,
2010-11-04, 00:05:04,VALID,917.502,VALID,0,VALID,95.6891,VALID,0,VALID,19.2153,VALID,354,VALID,0.840234,
2010-11-04, 00:06:04,VALID,917.468,VALID,0,VALID,95.6662,VALID,0,VALID,19.2153,VALID,358,VALID,0.492969,
2010-11-04, 00:07:04,VALID,917.461,VALID,0,VALID,95.5519,VALID,0,VALID,19.2153,VALID,358,VALID,0.437891,
2010-11-04, 00:08:04,VALID,917.489,VALID,0,VALID,95.468,VALID,0,VALID,19.1944,VALID,358,VALID,0.988281,
2010-11-04, 00:09:04,VALID,917.499,VALID,0,VALID,95.4604,VALID,0,VALID,19.2153,VALID,358,VALID,0.54375,
2010-11-04, 00:10:04,VALID,917.458,VALID,0,VALID,95.5595,VALID,0,VALID,19.1944,VALID,358,VALID,0.36875,
2010-11-04, 00:11:04,VALID,917.466,VALID,0,VALID,95.6891,VALID,0,VALID,19.2348,VALID,358,VALID,0.570313,
2010-11-04, 00:12:04,VALID,917.434,VALID,0,VALID,95.7958,VALID,0,VALID,19.2139,VALID,358,VALID,0.687109,
2010-11-04, 00:13:04,VALID,917.418,VALID,0,VALID,95.8416,VALID,0.107441,VALID,19.1958,VALID,358,VALID,0.648047,
2010-11-04, 00:14:04,VALID,917.411,VALID,0,VALID,95.834,VALID,0,VALID,19.1958,VALID,358,VALID,0.636719,
2010-11-04, 00:15:04,VALID,917.41,VALID,0,VALID,95.8416,VALID,0,VALID,19.1958,VALID,358,VALID,0.641016,
2010-11-04, 00:16:04,VALID,917.366,VALID,0,VALID,95.9407,VALID,0.107441,VALID,19.1554,VALID,359,VALID,0.914844,
2010-11-04, 00:17:04,VALID,917.383,VALID,0,VALID,95.9941,VALID,0,VALID,19.1554,VALID,358,VALID,1.04414,
2010-11-04, 00:18:04,VALID,917.315,VALID,0,VALID,96.0398,VALID,0,VALID,19.1373,VALID,358,VALID,0.311328,
2010-11-04, 00:19:04,VALID,917.352,VALID,0,VALID,96.1008,VALID,0,VALID,19.1164,VALID,359,VALID,0.746094,
2010-11-04, 00:20:04,VALID,917.327,VALID,0,VALID,96.1389,VALID,0.107441,VALID,19.1164,VALID,358,VALID,0.460938,
2010-11-04, 00:21:04,VALID,917.307,VALID,0,VALID,96.1618,VALID,0,VALID,19.1373,VALID,358,VALID,0.866016,
2010-11-04, 00:22:04,VALID,917.316,VALID,0,VALID,96.1694,VALID,0.107441,VALID,19.1164,VALID,345,VALID,1.06016,
2010-11-04, 00:23:04,VALID,917.288,VALID,0,VALID,96.1084,VALID,0,VALID,19.1164,VALID,345,VALID,1.21172,
2010-11-04, 00:24:04,VALID,917.284,VALID,0,VALID,96.0627,VALID,0,VALID,19.1164,VALID,351,VALID,1.3543,
2010-11-04, 00:25:04,VALID,917.246,VALID,0,VALID,96.0169,VALID,0.107441,VALID,19.1359,VALID,356,VALID,1.24023,
2010-11-04, 00:26:04,VALID,917.274,VALID,0,VALID,95.9559,VALID,0.107441,VALID,19.1359,VALID,355,VALID,0.895703,
2010-11-04, 00:27:04,VALID,917.263,VALID,0,VALID,95.9407,VALID,0,VALID,19.1359,VALID,359,VALID,1.56055,
2010-11-04, 00:28:04,VALID,917.252,VALID,0,VALID,95.9178,VALID,0,VALID,19.1568,VALID,347,VALID,0.729688,
2010-11-04, 00:29:04,VALID,917.216,VALID,0,VALID,95.8873,VALID,0,VALID,19.1554,VALID,341,VALID,0.990234,
2010-11-04, 00:30:04,VALID,917.226,VALID,0,VALID,95.9102,VALID,0,VALID,19.1749,VALID,328,VALID,0.885938,
2010-11-04, 00:31:04,VALID,917.229,VALID,0,VALID,95.9178,VALID,0,VALID,19.1749,VALID,266,VALID,0.613672,
2010-11-04, 00:32:04,VALID,917.172,VALID,0,VALID,95.8797,VALID,0.107441,VALID,19.1554,VALID,351,VALID,0.544531,
2010-11-04, 00:33:04,VALID,917.171,VALID,0,VALID,95.9178,VALID,0,VALID,19.1749,VALID,349,VALID,0.578906,
2010-11-04, 00:34:04,VALID,917.164,VALID,0,VALID,95.8416,VALID,0,VALID,19.1944,VALID,350,VALID,1.15391,
2010-11-04, 00:35:04,VALID,917.181,VALID,0,VALID,95.7349,VALID,0,VALID,19.2139,VALID,10,VALID,1.56797,
2010-11-04, 00:36:04,VALID,917.14,VALID,0,VALID,95.5138,VALID,0,VALID,19.2933,VALID,25,VALID,0.612891,
2010-11-04, 00:37:04,VALID,917.133,VALID,0,VALID,95.2775,VALID,0,VALID,19.2918,VALID,25,VALID,0.744531,
2010-11-04, 00:38:04,VALID,917.115,VALID,0,VALID,95.125,VALID,0,VALID,19.3518,VALID,25,VALID,0.871484,
2010-11-04, 00:39:04,VALID,917.114,VALID,0,VALID,94.9573,VALID,0,VALID,19.3698,VALID,25,VALID,0.528125,
2010-11-04, 00:40:04,VALID,917.044,VALID,0,VALID,94.8505,VALID,0,VALID,19.3908,VALID,25,VALID,0.975391,
2010-11-04, 00:41:04,VALID,917.036,VALID,0,VALID,94.7591,VALID,0.107441,VALID,19.3698,VALID,25,VALID,0.882031,
2010-11-04, 00:42:04,VALID,917.033,VALID,0,VALID,94.7972,VALID,0,VALID,19.3698,VALID,24,VALID,1.02539,
2010-11-04, 00:43:04,VALID,917.005,VALID,0,VALID,94.7438,VALID,0.107441,VALID,19.3698,VALID,7,VALID,1.49766,
2010-11-04, 00:44:04,VALID,916.975,VALID,0,VALID,94.7362,VALID,0.107441,VALID,19.3893,VALID,357,VALID,0.828125,
2010-11-04, 00:45:04,VALID,916.963,VALID,0,VALID,94.7667,VALID,0,VALID,19.4103,VALID,360,VALID,0.636719,
2010-11-04, 00:46:04,VALID,916.969,VALID,0,VALID,94.8582,VALID,0,VALID,19.3713,VALID,3,VALID,0.486328,
2010-11-04, 00:47:04,VALID,916.923,VALID,0,VALID,94.9344,VALID,0.107441,VALID,19.3294,VALID,2,VALID,0.125781,
2010-11-04, 00:48:04,VALID,916.906,VALID,0,VALID,94.9801,VALID,0.107441,VALID,19.3113,VALID,2,VALID,1.38398,
2010-11-04, 00:49:04,VALID,916.858,VALID,0,VALID,94.9115,VALID,0.107441,VALID,19.3308,VALID,357,VALID,1.05156,
2010-11-04, 00:50:04,VALID,916.83,VALID,0,VALID,94.8505,VALID,0,VALID,19.3503,VALID,352,VALID,0.673047,
2010-11-04, 00:51:04,VALID,916.803,VALID,0,VALID,94.7591,VALID,0,VALID,19.3698,VALID,351,VALID,0.734766,
2010-11-04, 00:52:04,VALID,916.812,VALID,0,VALID,94.7209,VALID,0.107441,VALID,19.3698,VALID,339,VALID,0.858594,
2010-11-04, 00:53:04,VALID,916.784,VALID,0,VALID,94.6981,VALID,0.107441,VALID,19.3893,VALID,339,VALID,1.19336,
2010-11-04, 00:54:04,VALID,916.797,VALID,0,VALID,94.6447,VALID,0.107441,VALID,19.3893,VALID,339,VALID,1.20313,
2010-11-04, 00:55:04,VALID,916.786,VALID,0,VALID,94.4465,VALID,0.107441,VALID,19.4493,VALID,339,VALID,0.558203,
2010-11-04, 00:56:04,VALID,916.774,VALID,0,VALID,94.3855,VALID,0,VALID,19.4283,VALID,339,VALID,0.639453,
2010-11-04, 00:57:04,VALID,916.771,VALID,0,VALID,94.4236,VALID,0,VALID,19.4103,VALID,340,VALID,0.966406,
2010-11-04, 00:58:04,VALID,916.769,VALID,0,VALID,94.4465,VALID,0.107441,VALID,19.3893,VALID,347,VALID,1.06094,
2010-11-04, 00:59:04,VALID,916.738,VALID,0,VALID,94.4313,VALID,0.107441,VALID,19.3893,VALID,6,VALID,0.983594,
2010-11-04, 01:00:04,VALID,916.78,VALID,0,VALID,94.3779,VALID,0,VALID,19.4298,VALID,6,VALID,0.834375,
2010-11-04, 01:01:04,VALID,916.729,VALID,0,VALID,94.1111,VALID,0,VALID,19.4088,VALID,24,VALID,1.51172,
2010-11-04, 01:02:04,VALID,916.717,VALID,0,VALID,93.8595,VALID,0.107441,VALID,19.4478,VALID,16,VALID,1.20273,
2010-11-04, 01:03:04,VALID,916.718,VALID,0,VALID,93.7528,VALID,0.107441,VALID,19.4673,VALID,350,VALID,0.723437,
2010-11-04, 01:04:04,VALID,916.676,VALID,0,VALID,93.6765,VALID,0.107441,VALID,19.4868,VALID,350,VALID,0.80625,
2010-11-04, 01:05:04,VALID,916.65,VALID,0,VALID,93.5393,VALID,0,VALID,19.5063,VALID,343,VALID,1.10312,
2010-11-04, 01:06:04,VALID,916.661,VALID,0,VALID,93.5393,VALID,0.107441,VALID,19.5453,VALID,5,VALID,0.953516,
2010-11-04, 01:07:04,VALID,916.652,VALID,0,VALID,93.6994,VALID,0.107441,VALID,19.5063,VALID,5,VALID,1.05938,
2010-11-04, 01:08:04,VALID,916.659,VALID,0,VALID,93.9129,VALID,0.107441,VALID,19.4673,VALID,5,VALID,1.21836,
2010-11-04, 01:09:04,VALID,916.625,VALID,0,VALID,93.9357,VALID,0,VALID,19.4283,VALID,5,VALID,1.37617,
2010-11-04, 01:10:04,VALID,916.653,VALID,0,VALID,93.9205,VALID,0.107441,VALID,19.4478,VALID,357,VALID,0.873438,
2010-11-04, 01:11:04,VALID,916.643,VALID,0,VALID,93.8443,VALID,0.107441,VALID,19.4478,VALID,357,VALID,0.807031,
2010-11-04, 01:12:04,VALID,916.676,VALID,0,VALID,93.9662,VALID,0,VALID,19.4673,VALID,357,VALID,0.597266,
2010-11-04, 01:13:04,VALID,916.663,VALID,0,VALID,94.1644,VALID,0,VALID,19.4493,VALID,357,VALID,1.31719,
2010-11-04, 01:14:04,VALID,916.672,VALID,0,VALID,94.3855,VALID,0,VALID,19.3908,VALID,357,VALID,1.12422,
2010-11-04, 01:15:04,VALID,916.69,VALID,0,VALID,94.6447,VALID,0,VALID,19.3323,VALID,4,VALID,0.91875,
2010-11-04, 01:16:04,VALID,916.675,VALID,0,VALID,94.7209,VALID,0,VALID,19.3323,VALID,14,VALID,1.35039,
2010-11-04, 01:17:04,VALID,916.689,VALID,0,VALID,94.5227,VALID,0,VALID,19.3323,VALID,359,VALID,1.57539,
2010-11-04, 01:18:04,VALID,916.666,VALID,0,VALID,94.3398,VALID,0,VALID,19.3713,VALID,11,VALID,1.1543,
2010-11-04, 01:19:04,VALID,916.664,VALID,0,VALID,94.3245,VALID,0,VALID,19.3908,VALID,10,VALID,1.18477,
2010-11-04, 01:20:04,VALID,916.652,VALID,0,VALID,94.2407,VALID,0.107441,VALID,19.3908,VALID,355,VALID,1.3332,
2010-11-04, 01:21:04,VALID,916.632,VALID,0,VALID,94.1568,VALID,0,VALID,19.3908,VALID,359,VALID,1.08438,
2010-11-04, 01:22:04,VALID,916.595,VALID,0,VALID,94.1339,VALID,0,VALID,19.4103,VALID,28,VALID,0.376172,
2010-11-04, 01:23:04,VALID,916.622,VALID,0,VALID,94.1111,VALID,0,VALID,19.4103,VALID,27,VALID,0.606641,
2010-11-04, 01:24:04,VALID,916.573,VALID,0,VALID,94.1797,VALID,0,VALID,19.3879,VALID,4,VALID,1.87227,
2010-11-04, 01:25:04,VALID,916.566,VALID,0,VALID,94.2026,VALID,0,VALID,19.4298,VALID,11,VALID,1.62734,
2010-11-04, 01:26:04,VALID,916.565,VALID,0,VALID,94.0653,VALID,0,VALID,19.3893,VALID,3,VALID,1.4293,
2010-11-04, 01:27:04,VALID,916.547,VALID,0,VALID,93.9205,VALID,0,VALID,19.4508,VALID,354,VALID,1.64727,
2010-11-04, 01:28:04,VALID,916.548,VALID,0,VALID,93.646,VALID,0,VALID,19.4493,VALID,334,VALID,1.13906,
2010-11-04, 01:29:04,VALID,916.53,VALID,0,VALID,93.4631,VALID,0,VALID,19.5078,VALID,7,VALID,1.05,
2010-11-04, 01:30:04,VALID,916.511,VALID,0,VALID,93.2191,VALID,0,VALID,19.4868,VALID,359,VALID,1.87344,
2010-11-04, 01:31:04,VALID,916.495,VALID,0,VALID,93.2954,VALID,0,VALID,19.5453,VALID,343,VALID,1.01016,
2010-11-04, 01:32:04,VALID,916.515,VALID,0,VALID,93.0743,VALID,0,VALID,19.5663,VALID,323,VALID,1.07852,
2010-11-04, 01:33:04,VALID,916.513,VALID,0,VALID,93.181,VALID,0,VALID,19.5453,VALID,323,VALID,1.11523,
2010-11-04, 01:34:04,VALID,916.512,VALID,0,VALID,93.3335,VALID,0,VALID,19.5468,VALID,323,VALID,0.789844,
2010-11-04, 01:35:04,VALID,916.502,VALID,0,VALID,93.5698,VALID,0,VALID,19.5063,VALID,323,VALID,0.315625,
2010-11-04, 01:36:04,VALID,916.454,VALID,0,VALID,93.7451,VALID,0,VALID,19.4673,VALID,323,VALID,0.078125,
2010-11-04, 01:37:04,VALID,916.436,VALID,0,VALID,94.0196,VALID,0,VALID,19.4688,VALID,323,VALID,1.48828,
2010-11-04, 01:38:04,VALID,916.446,VALID,0,VALID,93.9891,VALID,0,VALID,19.4493,VALID,19,VALID,0.90625,
2010-11-04, 01:39:04,VALID,916.476,VALID,0,VALID,93.768,VALID,0.107441,VALID,19.4478,VALID,19,VALID,0.747656,
2010-11-04, 01:40:04,VALID,916.455,VALID,0,VALID,93.646,VALID,0,VALID,19.4688,VALID,19,VALID,1.06602,
2010-11-04, 01:41:04,VALID,916.444,VALID,0.2,VALID,93.7147,VALID,0,VALID,19.4673,VALID,19,VALID,0.515625,
2010-11-04, 01:42:04,VALID,916.447,VALID,0,VALID,93.9738,VALID,0.107441,VALID,19.4688,VALID,19,VALID,0.597656,
2010-11-04, 01:43:04,VALID,916.406,VALID,0,VALID,94.1111,VALID,0,VALID,19.4298,VALID,19,VALID,0.293359,
2010-11-04, 01:44:04,VALID,916.378,VALID,0,VALID,94.1873,VALID,0,VALID,19.4103,VALID,19,VALID,0.791406,
2010-11-04, 01:45:04,VALID,916.372,VALID,0,VALID,93.9129,VALID,0,VALID,19.3893,VALID,6,VALID,1.19336,
2010-11-04, 01:46:04,VALID,916.425,VALID,0,VALID,93.2496,VALID,0,VALID,19.4088,VALID,345,VALID,1.08867,
2010-11-04, 01:47:04,VALID,916.386,VALID,0,VALID,92.5635,VALID,0,VALID,19.5273,VALID,345,VALID,0.744922,
2010-11-04, 01:48:04,VALID,916.38,VALID,0,VALID,92.4873,VALID,0,VALID,19.5858,VALID,345,VALID,1.00547,
2010-11-04, 01:49:04,VALID,916.342,VALID,0,VALID,91.7935,VALID,0,VALID,19.5648,VALID,345,VALID,1.0832,
2010-11-04, 01:50:04,VALID,916.319,VALID,0,VALID,92.0146,VALID,0,VALID,19.6428,VALID,345,VALID,1.24531,
2010-11-04, 01:51:04,VALID,916.354,VALID,0,VALID,91.9918,VALID,0,VALID,19.6428,VALID,345,VALID,0.746484,
2010-11-04, 01:52:04,VALID,916.308,VALID,0,VALID,91.7783,VALID,0,VALID,19.6233,VALID,18,VALID,1.21211,
2010-11-04, 01:53:04,VALID,916.285,VALID,0,VALID,91.8088,VALID,0,VALID,19.6833,VALID,15,VALID,0.996094,
2010-11-04, 01:54:04,VALID,916.266,VALID,0,VALID,91.9918,VALID,0,VALID,19.6833,VALID,15,VALID,0.485938,
2010-11-04, 01:55:04,VALID,916.23,VALID,0,VALID,91.8088,VALID,0,VALID,19.5828,VALID,10,VALID,0.998438,
2010-11-04, 01:56:04,VALID,916.261,VALID,0,VALID,91.9765,VALID,0,VALID,19.6668,VALID,13,VALID,0.719922,
2010-11-04, 01:57:04,VALID,916.189,VALID,0,VALID,92.2738,VALID,0,VALID,19.6248,VALID,13,VALID,0.541406,
2010-11-04, 01:58:04,VALID,916.171,VALID,0,VALID,92.7007,VALID,0,VALID,19.5858,VALID,13,VALID,0.851172,
2010-11-04, 01:59:04,VALID,916.215,VALID,0,VALID,92.9523,VALID,0,VALID,19.5468,VALID,13,VALID,0.169531,
2010-11-04, 02:00:04,VALID,916.163,VALID,0,VALID,93.303,VALID,0,VALID,19.5078,VALID,13,VALID,0.444531,
2010-11-04, 02:01:04,VALID,916.094,VALID,0,VALID,93.3564,VALID,0,VALID,19.4493,VALID,13,VALID,0.314844,
2010-11-04, 02:02:04,VALID,916.115,VALID,0,VALID,93.5927,VALID,0,VALID,19.4508,VALID,13,VALID,0.134766,
2010-11-04, 02:03:04,VALID,916.037,VALID,0,VALID,93.5393,VALID,0,VALID,19.3893,VALID,13,VALID,0.191016,
2010-11-04, 02:04:04,VALID,916.03,VALID,0,VALID,93.646,VALID,0,VALID,19.4103,VALID,13,VALID,0,
2010-11-04, 02:05:04,VALID,916.004,VALID,0,VALID,93.8976,VALID,0,VALID,19.4103,VALID,13,VALID,0.0582031,
2010-11-04, 02:06:04,VALID,915.997,VALID,0,VALID,94.073,VALID,0,VALID,19.3893,VALID,13,VALID,0.155078,
2010-11-04, 02:07:04,VALID,915.988,VALID,0,VALID,94.1034,VALID,0,VALID,19.3908,VALID,13,VALID,0.351563,
2010-11-04, 02:08:04,VALID,915.979,VALID,0,VALID,94.1263,VALID,0,VALID,19.3908,VALID,13,VALID,0.286328,
2010-11-04, 02:09:04,VALID,915.921,VALID,0,VALID,94.1034,VALID,0,VALID,19.3518,VALID,13,VALID,0.180078,
2010-11-04, 02:10:04,VALID,915.902,VALID,0,VALID,93.6689,VALID,0,VALID,19.4118,VALID,340,VALID,1.07773,
2010-11-04, 02:11:04,VALID,915.947,VALID,0,VALID,93.4478,VALID,0,VALID,19.4103,VALID,28,VALID,0.458594,
2010-11-04, 02:12:04,VALID,915.862,VALID,0,VALID,93.2801,VALID,0,VALID,19.4088,VALID,28,VALID,0.39375,
2010-11-04, 02:13:04,VALID,915.824,VALID,0,VALID,93.1886,VALID,0,VALID,19.4478,VALID,52,VALID,1.82383,
2010-11-04, 02:14:04,VALID,915.891,VALID,0,VALID,93.0667,VALID,0,VALID,19.4673,VALID,35,VALID,0.910937,
2010-11-04, 02:15:04,VALID,915.848,VALID,0,VALID,92.9294,VALID,0,VALID,19.4868,VALID,262,VALID,1.26172,
2010-11-04, 02:16:04,VALID,915.839,VALID,0,VALID,92.5178,VALID,0.107441,VALID,19.5063,VALID,211,VALID,0.298828,
2010-11-04, 02:17:04,VALID,915.813,VALID,0,VALID,92.7389,VALID,0.107441,VALID,19.5258,VALID,95,VALID,0.672656,
2010-11-04, 02:18:04,VALID,915.841,VALID,0,VALID,93.0743,VALID,0,VALID,19.5468,VALID,95,VALID,0.312891,
2010-11-04, 02:19:04,VALID,915.801,VALID,0,VALID,91.7935,VALID,0,VALID,19.6233,VALID,313,VALID,1.17578,
2010-11-04, 02:20:04,VALID,915.776,VALID,0,VALID,91.885,VALID,0,VALID,19.6623,VALID,24,VALID,1.88828,
2010-11-04, 02:21:04,VALID,915.77,VALID,0,VALID,91.9003,VALID,0.107441,VALID,19.6218,VALID,32,VALID,1.19414,
2010-11-04, 02:22:04,VALID,915.728,VALID,0,VALID,92.0451,VALID,0,VALID,19.6233,VALID,41,VALID,1.59336,
2010-11-04, 02:23:04,VALID,915.732,VALID,0,VALID,92.1519,VALID,0,VALID,19.6038,VALID,42,VALID,1.55078,
2010-11-04, 02:24:04,VALID,915.723,VALID,0,VALID,92.3577,VALID,0.107441,VALID,19.6038,VALID,41,VALID,1.13164,
2010-11-04, 02:25:04,VALID,915.718,VALID,0,VALID,92.19,VALID,0,VALID,19.5858,VALID,8,VALID,1.17578,
2010-11-04, 02:26:04,VALID,915.695,VALID,0,VALID,92.068,VALID,0.107441,VALID,19.5648,VALID,20,VALID,1.26172,
2010-11-04, 02:27:04,VALID,915.645,VALID,0,VALID,91.9231,VALID,0,VALID,19.6053,VALID,20,VALID,1.50234,
2010-11-04, 02:28:04,VALID,915.641,VALID,0,VALID,91.8164,VALID,0,VALID,19.6458,VALID,19,VALID,1.6125,
2010-11-04, 02:29:04,VALID,915.622,VALID,0,VALID,91.481,VALID,0,VALID,19.6233,VALID,325,VALID,2.08516,
2010-11-04, 02:30:04,VALID,915.597,VALID,0,VALID,91.42,VALID,0,VALID,19.6818,VALID,6,VALID,1.60781,
2010-11-04, 02:31:04,VALID,915.641,VALID,0,VALID,91.5648,VALID,0,VALID,19.6608,VALID,6,VALID,1.45,
2010-11-04, 02:32:04,VALID,915.627,VALID,0,VALID,92.0223,VALID,0,VALID,19.6623,VALID,6,VALID,1.16406,
2010-11-04, 02:33:04,VALID,915.592,VALID,0,VALID,92.0375,VALID,0,VALID,19.6428,VALID,29,VALID,1.33281,
2010-11-04, 02:34:04,VALID,915.593,VALID,0,VALID,91.8317,VALID,0,VALID,19.6023,VALID,312,VALID,0.649609,
2010-11-04, 02:35:04,VALID,915.622,VALID,0,VALID,92.0146,VALID,0,VALID,19.6428,VALID,321,VALID,0.889844,
2010-11-04, 02:36:04,VALID,915.591,VALID,0,VALID,92.1671,VALID,0,VALID,19.6428,VALID,27,VALID,1.6668,
2010-11-04, 02:37:04,VALID,915.628,VALID,0,VALID,92.6016,VALID,0,VALID,19.6443,VALID,360,VALID,1.29258,
2010-11-04, 02:38:04,VALID,915.575,VALID,0,VALID,92.5025,VALID,0.107441,VALID,19.5843,VALID,19,VALID,1.48945,
2010-11-04, 02:39:04,VALID,915.571,VALID,0,VALID,92.8303,VALID,0,VALID,19.5843,VALID,23,VALID,1.05547,
2010-11-04, 02:40:04,VALID,915.573,VALID,0,VALID,93.2191,VALID,0,VALID,19.5648,VALID,23,VALID,1.0125,
2010-11-04, 02:41:04,VALID,915.575,VALID,0,VALID,93.4021,VALID,0,VALID,19.5063,VALID,23,VALID,1.55977,
2010-11-04, 02:42:04,VALID,915.525,VALID,0,VALID,93.6003,VALID,0.107441,VALID,19.4673,VALID,9,VALID,1.77813,
2010-11-04, 02:43:04,VALID,915.554,VALID,0,VALID,93.6079,VALID,0,VALID,19.4493,VALID,33,VALID,0.828516,
2010-11-04, 02:44:04,VALID,915.549,VALID,0,VALID,93.5469,VALID,0,VALID,19.4493,VALID,33,VALID,0.371094,
2010-11-04, 02:45:04,VALID,915.511,VALID,0,VALID,93.7147,VALID,0,VALID,19.4688,VALID,25,VALID,1.66094,
2010-11-04, 02:46:04,VALID,915.497,VALID,0,VALID,93.6994,VALID,0,VALID,19.4688,VALID,23,VALID,1.88242,
2010-11-04, 02:47:04,VALID,915.494,VALID,0,VALID,93.5546,VALID,0,VALID,19.4913,VALID,20,VALID,1.48672,
2010-11-04, 02:48:04,VALID,915.485,VALID,0,VALID,93.4173,VALID,0,VALID,19.4688,VALID,35,VALID,1.24688,
2010-11-04, 02:49:04,VALID,915.492,VALID,0,VALID,93.4402,VALID,0,VALID,19.5273,VALID,34,VALID,1.27305,
2010-11-04, 02:50:04,VALID,915.451,VALID,0,VALID,93.0667,VALID,0,VALID,19.5273,VALID,349,VALID,1.22734,
2010-11-04, 02:51:04,VALID,915.464,VALID,0,VALID,93.3106,VALID,0,VALID,19.5678,VALID,26,VALID,1.85039,
2010-11-04, 02:52:04,VALID,915.422,VALID,0,VALID,93.4021,VALID,0,VALID,19.5273,VALID,26,VALID,2.32227,
2010-11-04, 02:53:04,VALID,915.474,VALID,0,VALID,93.6537,VALID,0,VALID,19.5273,VALID,13,VALID,1.37617,
2010-11-04, 02:54:04,VALID,915.421,VALID,0,VALID,93.9129,VALID,0,VALID,19.5078,VALID,26,VALID,1.775,
2010-11-04, 02:55:04,VALID,915.424,VALID,0,VALID,94.2102,VALID,0,VALID,19.4688,VALID,6,VALID,1.42695,
2010-11-04, 02:56:04,VALID,915.443,VALID,0,VALID,94.2788,VALID,0,VALID,19.4298,VALID,18,VALID,1.32266,
2010-11-04, 02:57:04,VALID,915.471,VALID,0,VALID,94.3931,VALID,0,VALID,19.4493,VALID,18,VALID,0.538672,
2010-11-04, 02:58:04,VALID,915.458,VALID,0,VALID,94.3474,VALID,0,VALID,19.4283,VALID,18,VALID,0.383984,
2010-11-04, 02:59:04,VALID,915.503,VALID,0,VALID,94.4846,VALID,0,VALID,19.4283,VALID,18,VALID,0.173047,
2010-11-04, 03:00:04,VALID,915.493,VALID,0,VALID,94.6142,VALID,0,VALID,19.4088,VALID,18,VALID,0.0492188,
2010-11-04, 03:01:04,VALID,915.481,VALID,0,VALID,94.66,VALID,0,VALID,19.3893,VALID,18,VALID,0.233203,
2010-11-04, 03:02:04,VALID,915.454,VALID,0,VALID,94.8353,VALID,0.107441,VALID,19.3893,VALID,18,VALID,1.06484,
2010-11-04, 03:03:04,VALID,915.465,VALID,0,VALID,94.9344,VALID,0.107441,VALID,19.3698,VALID,18,VALID,1.91172,
2010-11-04, 03:04:04,VALID,915.445,VALID,0,VALID,95.0716,VALID,0.107441,VALID,19.3308,VALID,18,VALID,1.1125,
2010-11-04, 03:05:04,VALID,915.438,VALID,0,VALID,95.2546,VALID,0,VALID,19.3113,VALID,39,VALID,1.38867,
2010-11-04, 03:06:04,VALID,915.445,VALID,0,VALID,95.3537,VALID,0,VALID,19.2918,VALID,38,VALID,1.22422,
2010-11-04, 03:07:04,VALID,915.465,VALID,0,VALID,95.4299,VALID,0.107441,VALID,19.2918,VALID,39,VALID,1.14258,
2010-11-04, 03:08:04,VALID,915.475,VALID,0,VALID,95.4909,VALID,0,VALID,19.2723,VALID,38,VALID,0.554688,
2010-11-04, 03:09:04,VALID,915.46,VALID,0,VALID,95.529,VALID,0.107441,VALID,19.2528,VALID,39,VALID,0,
2010-11-04, 03:10:04,VALID,915.49,VALID,0,VALID,95.6053,VALID,0,VALID,19.2528,VALID,38,VALID,0.0121094,
2010-11-04, 03:11:04,VALID,915.532,VALID,0,VALID,95.6053,VALID,0.107441,VALID,19.2334,VALID,39,VALID,0,
2010-11-04, 03:12:04,VALID,915.579,VALID,0,VALID,95.6281,VALID,0.107441,VALID,19.2334,VALID,39,VALID,0.198437,
2010-11-04, 03:13:04,VALID,915.592,VALID,0,VALID,95.6739,VALID,0,VALID,19.2348,VALID,39,VALID,0.349609,
2010-11-04, 03:14:04,VALID,915.638,VALID,0,VALID,95.7196,VALID,0,VALID,19.2348,VALID,39,VALID,0.935547,
2010-11-04, 03:15:04,VALID,915.648,VALID,0,VALID,95.7882,VALID,0,VALID,19.2153,VALID,39,VALID,0.557422,
2010-11-04, 03:16:04,VALID,915.664,VALID,0,VALID,95.8416,VALID,0,VALID,19.2153,VALID,39,VALID,0.629687,
2010-11-04, 03:17:04,VALID,915.645,VALID,0,VALID,95.895,VALID,0,VALID,19.2153,VALID,38,VALID,1.02383,
2010-11-04, 03:18:04,VALID,915.643,VALID,0,VALID,95.9026,VALID,0,VALID,19.1944,VALID,39,VALID,0.470313,
2010-11-04, 03:19:04,VALID,915.644,VALID,0,VALID,95.9636,VALID,0,VALID,19.1749,VALID,38,VALID,0.407422,
2010-11-04, 03:20:04,VALID,915.659,VALID,0,VALID,96.0017,VALID,0,VALID,19.1749,VALID,58,VALID,0.794922,
2010-11-04, 03:21:04,VALID,915.634,VALID,0,VALID,96.0169,VALID,0,VALID,19.2153,VALID,176,VALID,0.467969,
2010-11-04, 03:22:04,VALID,915.606,VALID,0,VALID,96.0474,VALID,0,VALID,19.2139,VALID,103,VALID,1.0957,
2010-11-04, 03:23:04,VALID,915.623,VALID,0,VALID,96.0474,VALID,0,VALID,19.2528,VALID,44,VALID,0.9625,
2010-11-04, 03:24:04,VALID,915.641,VALID,0,VALID,95.9864,VALID,0,VALID,19.2723,VALID,43,VALID,0.458594,
2010-11-04, 03:25:04,VALID,915.631,VALID,0,VALID,95.9712,VALID,0,VALID,19.2933,VALID,106,VALID,1.07539,
2010-11-04, 03:26:04,VALID,915.628,VALID,0,VALID,95.9178,VALID,0,VALID,19.3323,VALID,6,VALID,1.38984,
2010-11-04, 03:27:04,VALID,915.591,VALID,0,VALID,95.8568,VALID,0,VALID,19.3518,VALID,343,VALID,0.05625,
2010-11-04, 03:28:04,VALID,915.618,VALID,0,VALID,95.8263,VALID,0,VALID,19.3713,VALID,286,VALID,0.832812,
2010-11-04, 03:29:04,VALID,915.586,VALID,0,VALID,95.6662,VALID,0,VALID,19.3908,VALID,32,VALID,1.51016,
2010-11-04, 03:30:04,VALID,915.631,VALID,0,VALID,95.6053,VALID,0,VALID,19.4298,VALID,44,VALID,0.967969,
2010-11-04, 03:31:04,VALID,915.602,VALID,0,VALID,95.5595,VALID,0,VALID,19.4508,VALID,44,VALID,0.735937,
2010-11-04, 03:32:04,VALID,915.632,VALID,0,VALID,95.5519,VALID,0,VALID,19.4508,VALID,44,VALID,0.421094,
2010-11-04, 03:33:04,VALID,915.652,VALID,0,VALID,95.5519,VALID,0,VALID,19.4298,VALID,44,VALID,1.2957,
2010-11-04, 03:34:04,VALID,915.643,VALID,0,VALID,95.5976,VALID,0,VALID,19.4298,VALID,44,VALID,0.882813,
2010-11-04, 03:35:04,VALID,915.645,VALID,0,VALID,95.6281,VALID,0,VALID,19.4508,VALID,44,VALID,0.0554687,
2010-11-04, 03:36:04,VALID,915.656,VALID,0,VALID,95.6662,VALID,0,VALID,19.4508,VALID,44,VALID,0.341406,
2010-11-04, 03:37:04,VALID,915.662,VALID,0,VALID,95.6891,VALID,0,VALID,19.4103,VALID,44,VALID,0.344141,
2010-11-04, 03:38:04,VALID,915.633,VALID,0,VALID,95.712,VALID,0,VALID,19.4103,VALID,39,VALID,1.30664,
2010-11-04, 03:39:04,VALID,915.623,VALID,0,VALID,95.7806,VALID,0,VALID,19.4313,VALID,35,VALID,1.1043,
2010-11-04, 03:40:04,VALID,915.645,VALID,0,VALID,95.8035,VALID,0,VALID,19.4103,VALID,35,VALID,1.02695,
2010-11-04, 03:41:04,VALID,915.649,VALID,0,VALID,95.7958,VALID,0,VALID,19.4313,VALID,41,VALID,0.777344,
2010-11-04, 03:42:04,VALID,915.688,VALID,0,VALID,95.8111,VALID,0,VALID,19.4103,VALID,41,VALID,0.480859,
2010-11-04, 03:43:04,VALID,915.613,VALID,0,VALID,95.8187,VALID,0,VALID,19.4283,VALID,41,VALID,0.757813,